This is the latest recevied weather packets stored in our database for station/object EW8324. If no packets are shown the sender has not sent any weather packets the latest 1 day(s).
| Time | Temp. | Humidity | Pressure | Rain* | Wind** | Luminosity | Snow |
|---|---|---|---|---|---|---|---|
| 1777995408 | 25.56° C | 83% | 1005.1 hPa | 0 mm | 0 m/s | 104 W/m² | - |
| 1777995047 | 25.56° C | 83% | 1005.1 hPa | 0 mm | 0 m/s | 120 W/m² | - |
| 1777994744 | 25.56° C | 83% | 1005 hPa | 0 mm | 0 m/s | 76 W/m² | - |
| 1777994448 | 25.56° C | 83% | 1005.1 hPa | 0 mm | 0 m/s | - | - |
| 1777994146 | 25.56° C | 84% | 1004.9 hPa | 0 mm | 0 m/s | 148 W/m² | - |
| 1777993861 | 25° C | 83% | 1004.9 hPa | 0 mm | 0 m/s | 146 W/m² | - |
| 1777993547 | 25° C | 83% | 1005 hPa | 0 mm | 0 m/s | 157 W/m² | - |
| 1777993253 | 25° C | 84% | 1005.1 hPa | 0 mm | 0 m/s | 104 W/m² | - |
| 1777992945 | 25° C | 84% | 1005 hPa | 0 mm | 0 m/s | 106 W/m² | - |
| 1777992647 | 25° C | 84% | 1004.9 hPa | 0 mm | 0 m/s | 83 W/m² | - |
| 1777992344 | 25° C | 84% | 1004.9 hPa | 0 mm | 0 m/s | 79 W/m² | - |
| 1777992060 | 25° C | 84% | 1004.8 hPa | 0 mm | 0 m/s | 144 W/m² | - |
| 1777991745 | 25° C | 84% | 1004.9 hPa | 0 mm | 0 m/s | 88 W/m² | - |
| 1777991445 | 25° C | 84% | 1004.8 hPa | 0 mm | 0 m/s | 90 W/m² | - |
| 1777991203 | 25° C | 84% | 1004.8 hPa | 0 mm | 0 m/s | 92 W/m² | - |
| 1777990905 | 24.44° C | 84% | 1004.8 hPa | 0 mm | 0 m/s | 90 W/m² | - |
| 1777990544 | 24.44° C | 84% | 1004.8 hPa | 0 mm | 0 m/s | 158 W/m² | - |
| 1777990245 | 24.44° C | 84% | 1004.8 hPa | 0 mm | 0 m/s | 142 W/m² | - |
| 1777989943 | 24.44° C | 84% | 1004.6 hPa | 0 mm | 0 m/s | 160 W/m² | - |
| 1777989661 | 24.44° C | 84% | 1004.4 hPa | 0 mm | 0 m/s | 174 W/m² | - |
| 1777989341 | 23.89° C | 84% | 1004.6 hPa | 0 mm | 0 m/s | 160 W/m² | - |
| 1777989043 | 23.89° C | 84% | 1004.7 hPa | 0 mm | 0 m/s | 137 W/m² | - |
| 1777988743 | 23.89° C | 84% | 1004.9 hPa | 0 mm | 0 m/s | 167 W/m² | - |
| 1777988446 | 23.89° C | 84% | 1004.9 hPa | 0 mm | 0 m/s | 102 W/m² | - |
| 1777988144 | 23.89° C | 84% | 1004.9 hPa | 0 mm | 0 m/s | 53 W/m² | - |
* Rain latest hour (hover to see other rain measurements)
** Current wind speed in m/s (hover to see current wind gust speed)